Location: Lussas
(44.6119°N, 4.4726°E)
Time: 13:55:50
(UTC+00:00)

Lacrosse 4 Rocket - Pass Details

Date: 26 November 2020
Orbit: 537 x 621 km, 68.0° (Epoch: 27 January)

Event Time Altitude Azimuth Distance (km) Brightness Sun altitude
Exits shadow 04:58:52 32° 337° (NNW) 1,028 2.4 -19.9°
Maximum altitude 05:00:49 78° 60° (ENE) 614 1.5 -19.6°
Drops below altitude 10° 05:05:13 10° 147° (SSE) 1,949 4.7 -18.8°
Sets 05:07:29 0° 148° (SSE) 2,859 5.6 -18.4°
